EWG961 EDDK-LDRI

Flight info

Callsign EWG961
Flight time 1h 15m
Altitude 35000
Route KUMIK L603 TESGA DCT ESATI DCT DETEV DCT DINKU M867 XERUM DCT BAVAX DCT RADIZ DCT VEKEN/N0452F370 DCT GIRDA
Aircraft B738/M-SDE2E3FGHIRWXY/LB1

Departure

Time 2026-05-01 13:23
Airport Cologne Bonn Airport (EDDK)

Arrival

Time 2026-05-01 14:39
Airport Rijeka Airport (LDRI)
Time Latitude Longitude Altitude Speed Heading
2026-05-01 12:45 50.87982 7.12371 231 ft 0 kts 216°
2026-05-01 13:16 50.87997 7.12387 231 ft 3 kts 215°
2026-05-01 13:16 50.88005 7.12396 233 ft 3 kts 215°
2026-05-01 13:17 50.88055 7.12433 231 ft 3 kts 163°
2026-05-01 13:17 50.88064 7.12427 232 ft 0 kts 143°
2026-05-01 13:20 50.88046 7.12451 235 ft 7 kts 135°
2026-05-01 13:21 50.87998 7.12597 233 ft 7 kts 119°
2026-05-01 13:21 50.87989 7.12675 232 ft 7 kts 88°
2026-05-01 13:21 50.87998 7.12751 235 ft 7 kts 76°
2026-05-01 13:21 50.88009 7.12826 237 ft 7 kts 79°
2026-05-01 13:22 50.88009 7.12913 238 ft 10 kts 103°
2026-05-01 13:22 50.87977 7.13009 238 ft 10 kts 141°
2026-05-01 13:22 50.87921 7.13096 238 ft 23 kts 137°
2026-05-01 13:22 50.87603 7.13552 238 ft 98 kts 138°
2026-05-01 13:23 50.86933 7.14501 308 ft 153 kts 139°
2026-05-01 13:23 50.86143 7.15766 959 ft 167 kts 130°
2026-05-01 13:23 50.85354 7.17209 1819 ft 178 kts 131°
2026-05-01 13:23 50.84438 7.18635 2600 ft 188 kts 138°
2026-05-01 13:24 50.83389 7.20084 2974 ft 213 kts 139°
2026-05-01 13:24 50.82547 7.22036 3798 ft 223 kts 110°
2026-05-01 13:24 50.82239 7.24489 4455 ft 232 kts 104°
2026-05-01 13:25 50.81638 7.29951 5437 ft 262 kts 103°
2026-05-01 13:25 50.81329 7.32780 5729 ft 260 kts 103°
2026-05-01 13:25 50.81025 7.35601 5971 ft 263 kts 104°
2026-05-01 13:25 50.80723 7.38293 6454 ft 270 kts 103°
2026-05-01 13:26 50.80415 7.41066 7496 ft 264 kts 103°
2026-05-01 13:26 50.80093 7.43950 8402 ft 268 kts 103°
2026-05-01 13:26 50.79770 7.46837 9251 ft 271 kts 103°
2026-05-01 13:26 50.79439 7.49788 10132 ft 274 kts 103°
2026-05-01 13:27 50.79119 7.52624 10643 ft 289 kts 103°
2026-05-01 13:27 50.78746 7.55895 10839 ft 316 kts 102°
2026-05-01 13:27 50.78686 7.63293 11456 ft 359 kts 82°
2026-05-01 13:28 50.79634 7.71149 13011 ft 364 kts 82°
2026-05-01 13:28 50.80098 7.75111 13751 ft 369 kts 82°
2026-05-01 13:29 50.81006 7.83154 15103 ft 376 kts 82°
2026-05-01 13:29 50.81913 7.91347 16501 ft 380 kts 82°
2026-05-01 13:30 50.82883 8.08221 18902 ft 393 kts 107°
2026-05-01 13:31 50.80217 8.15755 20078 ft 395 kts 124°
2026-05-01 13:31 50.75532 8.26596 21672 ft 404 kts 123°
2026-05-01 13:32 50.72392 8.33992 22758 ft 408 kts 123°
2026-05-01 13:33 50.66890 8.43040 23974 ft 422 kts 145°
2026-05-01 13:33 50.62562 8.46829 24463 ft 432 kts 151°
2026-05-01 13:34 50.57173 8.51250 25094 ft 440 kts 150°
2026-05-01 13:34 50.51720 8.55808 25801 ft 446 kts 150°
2026-05-01 13:35 50.46219 8.60448 26478 ft 451 kts 149°
2026-05-01 13:35 50.43594 8.63172 26769 ft 453 kts 140°
2026-05-01 13:35 50.39037 8.69944 27402 ft 457 kts 134°
2026-05-01 13:36 50.36764 8.73443 27719 ft 460 kts 134°
2026-05-01 13:36 50.34476 8.76942 28010 ft 462 kts 134°
2026-05-01 13:36 50.29820 8.83979 28592 ft 467 kts 135°
2026-05-01 13:37 50.27468 8.87506 28880 ft 470 kts 135°
2026-05-01 13:37 50.25096 8.91057 29205 ft 471 kts 135°
2026-05-01 13:37 50.22728 8.94592 29644 ft 470 kts 135°
2026-05-01 13:37 50.20371 8.98107 30094 ft 468 kts 135°
2026-05-01 13:38 50.15657 9.05125 30781 ft 468 kts 135°
2026-05-01 13:38 50.13302 9.08625 31112 ft 468 kts 135°
2026-05-01 13:38 50.10941 9.12131 31410 ft 468 kts 135°
2026-05-01 13:39 50.08577 9.15636 31738 ft 468 kts 135°
2026-05-01 13:39 50.06222 9.19120 32038 ft 468 kts 135°
2026-05-01 13:39 50.03856 9.22616 32360 ft 468 kts 135°
2026-05-01 13:39 50.01530 9.26049 32667 ft 467 kts 135°
2026-05-01 13:40 49.99169 9.29530 32963 ft 468 kts 135°
2026-05-01 13:40 49.96808 9.33010 33253 ft 468 kts 135°
2026-05-01 13:40 49.94438 9.36497 33580 ft 467 kts 135°
2026-05-01 13:40 49.92088 9.39948 33866 ft 467 kts 135°
2026-05-01 13:41 49.89723 9.43419 34168 ft 467 kts 135°
2026-05-01 13:41 49.87358 9.46885 34422 ft 467 kts 135°
2026-05-01 13:41 49.84997 9.50342 34692 ft 466 kts 135°
2026-05-01 13:41 49.82638 9.53787 34979 ft 465 kts 135°
2026-05-01 13:42 49.80281 9.57221 35223 ft 464 kts 135°
2026-05-01 13:42 49.77931 9.60635 35324 ft 462 kts 136°
2026-05-01 13:42 49.75578 9.64047 35330 ft 463 kts 135°
2026-05-01 13:43 49.70863 9.70873 35340 ft 466 kts 136°
2026-05-01 13:43 49.66120 9.77723 35336 ft 467 kts 136°
2026-05-01 13:44 49.61393 9.84534 35344 ft 468 kts 136°
2026-05-01 13:44 49.56631 9.91375 35345 ft 468 kts 136°
2026-05-01 13:45 49.51865 9.98203 35348 ft 467 kts 136°
2026-05-01 13:45 49.47103 10.05008 35345 ft 467 kts 136°
2026-05-01 13:46 49.42347 10.11784 35352 ft 466 kts 135°
2026-05-01 13:46 49.37593 10.18540 35346 ft 465 kts 135°
2026-05-01 13:47 49.32846 10.25268 35357 ft 464 kts 136°
2026-05-01 13:47 49.28103 10.31973 35361 ft 463 kts 135°
2026-05-01 13:48 49.23303 10.38558 35365 ft 464 kts 141°
2026-05-01 13:48 49.17806 10.43773 35372 ft 465 kts 148°
2026-05-01 13:49 49.12245 10.48711 35376 ft 465 kts 148°
2026-05-01 13:49 49.06675 10.53718 35387 ft 464 kts 148°
2026-05-01 13:50 49.01117 10.58750 35375 ft 464 kts 147°
2026-05-01 13:50 48.95561 10.63776 35377 ft 465 kts 147°
2026-05-01 13:51 48.89996 10.68795 35370 ft 465 kts 147°
2026-05-01 13:51 48.84429 10.73800 35358 ft 465 kts 147°
2026-05-01 13:52 48.79272 10.79631 35355 ft 461 kts 131°
2026-05-01 13:52 48.75000 10.86863 35356 ft 460 kts 129°
2026-05-01 13:53 48.70744 10.94121 35345 ft 460 kts 129°
2026-05-01 13:53 48.64333 11.04879 35347 ft 461 kts 130°
2026-05-01 13:54 48.60020 11.12056 35346 ft 461 kts 130°
2026-05-01 13:54 48.55706 11.19213 35341 ft 461 kts 130°
2026-05-01 13:55 48.51508 11.26162 35341 ft 461 kts 130°
2026-05-01 13:55 48.47187 11.33295 35341 ft 460 kts 130°
2026-05-01 13:56 48.42867 11.40409 35336 ft 460 kts 130°
2026-05-01 13:56 48.38541 11.47513 35345 ft 460 kts 130°
2026-05-01 13:57 48.34948 11.53401 35345 ft 459 kts 130°
2026-05-01 13:57 48.29896 11.61658 35346 ft 459 kts 130°
2026-05-01 13:58 48.26294 11.67513 35348 ft 459 kts 131°
2026-05-01 13:58 48.20891 11.75169 35354 ft 460 kts 135°
2026-05-01 13:59 48.16906 11.80539 35350 ft 460 kts 135°
2026-05-01 13:59 48.12153 11.86973 35346 ft 460 kts 135°
2026-05-01 14:00 48.07456 11.93373 35347 ft 459 kts 134°
2026-05-01 14:00 48.02732 11.99817 35334 ft 460 kts 134°
2026-05-01 14:01 47.98005 12.06250 35341 ft 460 kts 134°
2026-05-01 14:01 47.93267 12.12681 35329 ft 460 kts 134°
2026-05-01 14:02 47.88532 12.19088 35343 ft 460 kts 134°
2026-05-01 14:02 47.83784 12.25497 35338 ft 460 kts 134°
2026-05-01 14:03 47.79114 12.31785 35333 ft 460 kts 134°
2026-05-01 14:03 47.74368 12.38160 35309 ft 460 kts 134°
2026-05-01 14:04 47.69626 12.44513 35331 ft 459 kts 134°
2026-05-01 14:04 47.64880 12.50857 35324 ft 460 kts 134°
2026-05-01 14:05 47.59679 12.56456 35324 ft 466 kts 148°
2026-05-01 14:05 47.53959 12.60989 35304 ft 466 kts 148°
2026-05-01 14:06 47.48276 12.65469 35325 ft 466 kts 148°
2026-05-01 14:06 47.42565 12.70024 35332 ft 467 kts 148°
2026-05-01 14:07 47.36839 12.74609 35310 ft 469 kts 148°
2026-05-01 14:08 47.28206 12.81511 35308 ft 472 kts 148°
2026-05-01 14:08 47.22450 12.86097 35313 ft 473 kts 147°
2026-05-01 14:09 47.16622 12.90727 35310 ft 473 kts 147°
2026-05-01 14:09 47.10863 12.95292 35309 ft 473 kts 147°
2026-05-01 14:10 47.05062 12.99878 35315 ft 473 kts 147°
2026-05-01 14:10 46.99271 13.04445 35307 ft 471 kts 147°
2026-05-01 14:11 46.93503 13.08982 35310 ft 470 kts 147°
2026-05-01 14:11 46.84853 13.15766 35311 ft 470 kts 147°
2026-05-01 14:12 46.79164 13.20206 35292 ft 445 kts 147°
2026-05-01 14:12 46.76532 13.22254 35284 ft 431 kts 147°
2026-05-01 14:12 46.73901 13.24303 35231 ft 419 kts 147°
2026-05-01 14:13 46.71318 13.26317 34994 ft 413 kts 147°
2026-05-01 14:13 46.69654 13.27613 34960 ft 405 kts 146°
2026-05-01 14:13 46.63850 13.32138 34959 ft 412 kts 146°
2026-05-01 14:14 46.58684 13.36152 34953 ft 428 kts 147°
2026-05-01 14:14 46.53344 13.40184 34970 ft 443 kts 149°
2026-05-01 14:15 46.47684 13.44164 34988 ft 455 kts 149°
2026-05-01 14:15 46.41903 13.48191 34987 ft 466 kts 149°
2026-05-01 14:16 46.36038 13.52294 34985 ft 475 kts 149°
2026-05-01 14:16 46.33038 13.54399 34729 ft 481 kts 149°
2026-05-01 14:16 46.30037 13.56501 34510 ft 478 kts 149°
2026-05-01 14:17 46.27052 13.58588 34136 ft 474 kts 149°
2026-05-01 14:17 46.24085 13.60663 33377 ft 473 kts 149°
2026-05-01 14:17 46.21125 13.62732 32688 ft 472 kts 149°
2026-05-01 14:17 46.18155 13.64808 31934 ft 474 kts 149°
2026-05-01 14:18 46.15191 13.66877 31148 ft 475 kts 149°
2026-05-01 14:18 46.12215 13.68953 30378 ft 477 kts 149°
2026-05-01 14:18 46.09205 13.71048 29412 ft 480 kts 149°
2026-05-01 14:18 46.07216 13.72431 28940 ft 478 kts 149°
2026-05-01 14:19 46.03240 13.75185 28109 ft 470 kts 149°
2026-05-01 14:19 46.00305 13.77217 27533 ft 464 kts 149°
2026-05-01 14:19 45.97407 13.79222 26919 ft 460 kts 149°
2026-05-01 14:19 45.94541 13.81203 26327 ft 456 kts 149°
2026-05-01 14:20 45.91693 13.83171 25749 ft 451 kts 149°
2026-05-01 14:20 45.86113 13.87021 24610 ft 444 kts 149°
2026-05-01 14:20 45.83341 13.88931 24019 ft 441 kts 149°
2026-05-01 14:21 45.80582 13.90829 23381 ft 437 kts 149°
2026-05-01 14:21 45.77855 13.92703 22748 ft 433 kts 149°
2026-05-01 14:21 45.75152 13.94559 22168 ft 428 kts 149°
2026-05-01 14:22 45.69826 13.98208 21020 ft 420 kts 149°
2026-05-01 14:22 45.67204 14.00003 20476 ft 417 kts 149°
2026-05-01 14:22 45.64596 14.01787 19916 ft 414 kts 149°
2026-05-01 14:22 45.62003 14.03558 19353 ft 411 kts 149°
2026-05-01 14:23 45.59434 14.05313 18795 ft 409 kts 149°
2026-05-01 14:23 45.56873 14.07059 18180 ft 407 kts 149°
2026-05-01 14:23 45.54328 14.08792 17608 ft 404 kts 149°
2026-05-01 14:23 45.51800 14.10510 17050 ft 400 kts 149°
2026-05-01 14:24 45.49363 14.12340 16508 ft 390 kts 139°
2026-05-01 14:24 45.47501 14.15006 16019 ft 372 kts 120°
2026-05-01 14:24 45.46306 14.18192 15473 ft 361 kts 105°
2026-05-01 14:24 45.45492 14.21545 14956 ft 356 kts 103°
2026-05-01 14:25 45.44714 14.24874 14447 ft 354 kts 103°
2026-05-01 14:25 45.43933 14.28137 13910 ft 352 kts 104°
2026-05-01 14:25 45.43102 14.31399 13330 ft 352 kts 109°
2026-05-01 14:25 45.41687 14.34276 12783 ft 361 kts 130°
2026-05-01 14:26 45.39661 14.36405 12284 ft 366 kts 147°
2026-05-01 14:26 45.35063 14.39444 11300 ft 363 kts 152°
2026-05-01 14:26 45.32785 14.40866 11143 ft 350 kts 151°
2026-05-01 14:27 45.30595 14.42240 10976 ft 338 kts 151°
2026-05-01 14:27 45.28482 14.43579 10820 ft 327 kts 151°
2026-05-01 14:27 45.26431 14.44890 10687 ft 317 kts 150°
2026-05-01 14:28 45.22557 14.47384 10427 ft 299 kts 150°
2026-05-01 14:28 45.20694 14.48586 10306 ft 291 kts 150°
2026-05-01 14:28 45.18862 14.49771 10024 ft 289 kts 150°
2026-05-01 14:28 45.17038 14.50951 9725 ft 287 kts 150°
2026-05-01 14:29 45.15230 14.52120 9433 ft 285 kts 150°
2026-05-01 14:29 45.13436 14.53279 9137 ft 282 kts 150°
2026-05-01 14:30 45.08076 14.56734 8161 ft 280 kts 151°
2026-05-01 14:30 45.06304 14.57875 7887 ft 279 kts 151°
2026-05-01 14:30 45.04540 14.59008 7608 ft 278 kts 151°
2026-05-01 14:31 45.01033 14.61265 7136 ft 274 kts 152°
2026-05-01 14:31 44.99350 14.62341 7019 ft 266 kts 152°
2026-05-01 14:31 44.97689 14.63402 6936 ft 259 kts 152°
2026-05-01 14:31 44.96107 14.64527 6796 ft 248 kts 138°
2026-05-01 14:32 44.95084 14.66323 6735 ft 226 kts 107°
2026-05-01 14:32 44.94807 14.68434 6513 ft 216 kts 84°
2026-05-01 14:32 44.95083 14.70419 6243 ft 214 kts 67°
2026-05-01 14:32 44.95812 14.72268 5826 ft 220 kts 54°
2026-05-01 14:33 44.96716 14.74027 5504 ft 223 kts 53°
2026-05-01 14:33 44.97644 14.75793 5224 ft 225 kts 53°
2026-05-01 14:33 44.98761 14.77297 4995 ft 221 kts 28°
2026-05-01 14:33 45.00249 14.77738 4717 ft 228 kts 354°
2026-05-01 14:34 45.01755 14.76966 4442 ft 234 kts 340°
2026-05-01 14:34 45.03212 14.75918 4166 ft 234 kts 335°
2026-05-01 14:34 45.04622 14.74761 3900 ft 235 kts 330°
2026-05-01 14:34 45.05964 14.73439 3676 ft 236 kts 327°
2026-05-01 14:35 45.07303 14.72038 3383 ft 238 kts 327°
2026-05-01 14:35 45.08602 14.70673 3168 ft 228 kts 327°
2026-05-01 14:35 45.09858 14.69363 2883 ft 220 kts 327°
2026-05-01 14:35 45.11062 14.68110 2602 ft 214 kts 326°
2026-05-01 14:36 45.12228 14.66897 2338 ft 202 kts 326°
2026-05-01 14:36 45.13368 14.65768 2065 ft 195 kts 326°
2026-05-01 14:36 45.14431 14.64612 1861 ft 189 kts 327°
2026-05-01 14:36 45.15462 14.63512 1594 ft 178 kts 328°
2026-05-01 14:37 45.16445 14.62505 1315 ft 170 kts 328°
2026-05-01 14:37 45.17361 14.61555 1158 ft 159 kts 328°
2026-05-01 14:37 45.18252 14.60624 886 ft 159 kts 328°
2026-05-01 14:37 45.19135 14.59677 550 ft 159 kts 328°
2026-05-01 14:38 45.19952 14.58819 480 ft 144 kts 328°
2026-05-01 14:38 45.20768 14.57997 279 ft 138 kts 330°
2026-05-01 14:38 45.21464 14.57294 261 ft 104 kts 325°
2026-05-01 14:38 45.21930 14.56808 264 ft 62 kts 320°
2026-05-01 14:39 45.22049 14.56691 266 ft 0 kts
2026-05-01 14:39 45.22052 14.56695 266 ft 1 kts 36°
2026-05-01 14:39 45.22055 14.56720 266 ft 4 kts 92°
2026-05-01 14:39 45.22045 14.56774 266 ft 7 kts 104°
2026-05-01 14:40 45.22033 14.56843 266 ft 7 kts 103°
2026-05-01 14:40 45.22025 14.56894 266 ft 8 kts 103°
2026-05-01 14:40 45.22000 14.56973 265 ft 9 kts 127°
2026-05-01 14:40 45.21958 14.57032 265 ft 1 kts 115°
2026-05-01 14:41 45.21961 14.57077 265 ft 7 kts 89°
2026-05-01 14:41 45.21958 14.57101 265 ft 1 kts 103°
2026-05-01 14:41 45.21957 14.57105 265 ft 0 kts 103°